Location: Hac?musa Deresi
(39.1694°N, 32.2508°E)
Time: 11:24:31
(UTC+00:00)

Cosmos 2278 Rocket - Pass Details

Date: 22 April 2026
Orbit: 839 x 845 km, 71.0° (Epoch: 20 May)

Event Time Altitude Azimuth Distance (km) Brightness Sun altitude
Rises 16:57:30 0° 338° (NNW) 3,411 6.0 -4.9°
Reaches altitude 10° 16:59:58 10° 341° (NNW) 2,472 5.3 -5.4°
Maximum altitude 17:05:38 74° 66° (ENE) 880 2.2 -6.4°
Drops below altitude 10° 17:11:16 10° 152° (SSE) 2,453 4.2 -7.4°
Enters shadow 17:13:35 - 154° (SSE) 3,334 4.8 -7.8°
